SCP
0 0 0 0 0 0 0 0 0 0 0 0 0 0 0 0 0 0 0 0 0 0 0 0 0 0 0 0 0 0 0 0 0 0 0 0 0 0 0 0 0 0 0 0 0 0 0 0 0
0 0 0 0 0 0 0 0 0 0 0 0 0 0 0 0 0 0 0 0 0 0 0 0 0 0 0 0 0 0 0 0 0 0 0 0 0 0 0 0 0 0 0 0 0 0 0 0 0
0 0 0 0 0 0 0 0 0 0 0 0 0 0 0 0 0 0 0 0 0 0 0 0 0 0 0 0 0 0 0 0 0 0 0 0 0 0 0 0 0 0 0 0 0 0 0 0 0
0 0 0 0 0 0 0 0 0 0 0 0 0 0 0 0 0 0 0 0 0 0 0 0 0 0 0 0 0 0 0 0 0 0 0 0 0 0 0 0 0 0 0 0 0 0 0 0 0
0 0 0 0 0 0 0 0 0 0 0 0 0 0 0 0 0 0 0 0 0 0 0 0 0 0 0 0 0 0 0 0 0 0 0 0 0 0 0 0 0 0 0 0 0 0 0 0 0
0 0 0 0 0 0 0 0 0 0 0 0 0 0 0 0 0 0 0 0 0 0 0 0 0 0 0 0 0 0 0 0 0 0 0 0 0 0 0 0 0 0 0 0 0 0 0 0 0
0 0 0 0 0 0 0 0 0 0 0 0 0 0 0 0 0 0 0 0 0 0 0 0 0 0 0 0 0 0 0 0 0 0 0 0 0 0 0 0 0 0 0 0 0 0 0 0 0
0 0 0 0 0 0 0 0 0 0 0 0 0 0 0 -0 0 0 0 0 0 0 0 0 0 0 0 0 0 0 0 0 0 0 0 0 0 0 0 0 0 0 0 0 0 0 0 0 0
0 0 0 0 0 0 0 0 0 0 0 0 0 0 0 0 0 0 0 0 0 0 0 0 0 0 0 0 0 0 0 0 0 0 0 0 0 0 0 0 0 0 0 0 0 0 0 0 0
0 0 0 0 0 0 0 0 0 0 0 0 0 0 0 0 0 0 0 0 0 0 0 0 0 0 0 0 0 0 0 0 0 0 0 0 0 0 0 0 0 0 0 0 0 0 0 0 0
0 0 0 0 0 0 0 0 0 0 0 0 0 0 0 0 0 0 0 0 0 0 0 0 0 0 0 0 0 0 0 0 0 0 0 0 0 0 0 0 0 0 0 0 0 0 0 0 0
0 0 0 0 0 0 0 0 0 0 0 0 0 0 0 0 0 0 0 0 0 0 0 0 0 0 0 0 0 0 0 0 0 0 0 0 0 0 0 0 0 0 0 0 0 0 0 0 0
0 0 0 0 0 0 0 0 0 0 0 0 0 0 0 0 0 0 0 0 0 0 0 0 0 0 0 0 0 0 0 0 0 0 0 0 0 0 0 0 0 0 0 0 0 0 0 0 0
0 0 0 0 0 0 0 0 0 0 0 0 0 0 0 0 0 0 0 0 0 0 0 0 0 0 0 0 0 0 0 0 0 0 0 0 0 0 0 0 0 0 0 0 0 0 0 0 0
0 0 0 0 0 0 0 0 0 0 0 0 0 0 0 0 0 0 0 0 0 0 0 0 0 0 0 0 0 0 0 0 0 0 0 0 0 0 0 0 0 0 0 0 0 0 0 0 0
0 0 0 0 0 0 0 0 0 0 0 0 0 0 0 0 0 0 0 0 0 0 0 0 0 0 0 0 0 0 0 0 0 0 0 0 0 0 0 0 0 0 0 0 0 0 0 0 0
0 0 0 0 0 0 0 0 0 0 0 0 0 0 0 0 0 0 0 0 0 0 0 0 0 0 0 0 0 0 0 0 0 0 0 0 0 0 0 0 0 0 0 0 0 0 0 0 0
0 0 0 0 0 0 0 0 0 0 0 0 0 0 0 0 0 0 0 0 0 0 0 0 0 0 0 0 0 0 0 0 0 0 0 0 0 0 0 0 0 0 0 0 0 0 0 0 0
0 0 0 0 0 0 0 0 -0 -0 0 0 0 0 0 0 0 0 0 0 0 0 0 0 0 0 0 0 0 0 0 0 0 0 0 0 0 0 0 0 0 0 0 0 0 0 0 0 0
0 0 0 0 0 0 0 0 0 0 0 0 0 0 0 0 0 0 0 0 0 0 0 0 0 0 0 0 0 0 0 0 0 0 0 0 0 0 0 0 0 0 0 0 0 0 0 0 0
0 0 0 0 0 0 0 0 0 0 0 0 0 0 0 0 0 0 0 0 0 0 0 0 0 0 0 0 0 0 0 0 0 0 0 0 0 0 0 0 0 0 0 0 0 0 0 0 0
0 0 0 0 0 0 0 0 0 0 0 0 0 0 0 0 0 0 0 0 0 0 0 0 0 0 0 0 0 0 0 0 0 0 0 0 0 0 0 0 0 0 0 0 0 0 0 0 0
0 0 0 0 0 0 0 0 0 0 0 0 0 0 0 0 0 0 0 0 0 0 0 0 0 0 0 0 0 0 0 0 0 0 0 0 0 0 0 0 0 0 -0 -0 0 -0 0 -0 -0
0 0 0 0 0 0 0 0 0 0 0 0 0 0 0 0 0 0 0 0 0 0 0 0 0 0 0 0 0 0 0 0 0 0 0 0 0 0 0 0 0 0 0 0 -0 -0 0 0 -0
0 0 0 0 0 0 0 0 0 0 0 0 0 0 0 0 0 0 0 0 0 0 0 0 0 0 0 0 0 0 0 0 0 0 0 0 0 0 0 0 0 -0 0 0 0 0 0 0 0
0 0 0 0 0 0 0 0 0 0 0 0 0 0 0 0 0 0 0 0 0 0 0 0 0 0 0 0 0 0 0 0 0 0 0 0 0 0 0 0 0 0 0 0 0 0 -0 0 0
0 0 0 0 0 0 0 0 0 0 0 0 0 0 0 0 0 0 0 0 0 0 0 0 0 0 0 0 0 0 0 0 0 0 0 0 0 0 0 0 0 0 0 0 0 0 0 0 0
0 0 0 0 0 0 0 0 0 0 0 0 0 0 0 0 0 0 0 0 0 0 0 0 0 0 0 0 0 0 0 0 0 0 0 0 0 0 0 0 0 0 0 0 0 0 0 0 0
0 0 0 0 0 0 0 0 0 0 0 0 0 0 0 0 0 0 0 0 0 0 0 0 0 0 0 0 0 0 0 0 0 0 0 0 0 0 0 0 0 0 0 0 0 0 0 0 0
0 0 0 0 0 0 0 0 0 0 0 0 0 0 0 0 0 0 0 0 0 0 0 0 0 0 0 0 0 0 0 0 0 0 0 0 0 0 0 0 0 0 0 0 0 0 0 0 0
Wind_Speed_500mb
11 10 11 2 6 7 5 5 8 11 9 13 26 26 29 32 10 5 18 8 11 10 8 7 7 5 5 8 11 9 7 4 6 8 9 7 8 9 8 10 13 15 17 15 14 15 14 13 13
10 8 5 1 5 1 4 1 9 13 7 12 19 11 22 10 18 23 12 5 6 8 6 7 5 6 8 8 6 8 9 8 9 11 13 14 14 15 15 16 16 16 14 16 15 13 14 12 13
8 9 2 4 4 2 5 6 13 16 29 13 11 25 11 7 14 14 7 5 5 6 8 9 9 8 4 3 4 6 8 9 10 12 14 15 15 17 20 21 20 21 20 18 19 18 17 14 13
4 3 5 5 4 6 8 11 28 12 14 22 16 19 16 6 9 9 12 10 7 6 7 6 5 5 5 7 10 10 11 14 15 16 17 19 20 22 24 23 18 20 23 22 22 21 19 19 17
7 6 2 4 2 6 10 28 18 10 11 22 9 10 11 9 14 15 13 8 5 4 4 3 3 4 7 10 14 16 17 18 19 21 23 25 26 26 27 27 27 28 26 26 28 27 25 22 21
4 3 4 6 3 10 7 24 35 21 14 9 18 15 6 12 11 13 9 6 2 0 2 3 4 6 10 13 16 19 21 21 21 22 25 29 31 32 28 27 29 28 31 32 30 27 30 27 27
3 5 8 7 4 3 9 21 10 15 14 7 13 10 14 15 14 12 7 4 1 2 4 6 9 11 11 13 15 17 20 22 24 23 24 29 27 32 29 29 29 29 28 28 26 24 27 28 23
4 6 5 7 5 4 4 10 13 19 7 15 12 13 14 22 18 13 6 4 4 3 6 7 11 12 14 18 19 17 19 21 21 22 24 25 25 28 25 23 24 26 26 28 28 28 28 28 26
3 4 5 5 8 7 14 8 5 13 19 8 8 15 14 26 21 17 11 5 7 8 12 11 12 17 16 16 18 18 15 16 17 17 19 20 20 21 23 24 23 23 24 27 29 29 28 26 26
4 6 6 4 6 3 11 7 17 10 11 7 12 18 22 23 25 17 16 9 6 8 12 14 14 14 19 21 20 21 20 16 16 15 14 14 14 15 17 19 20 21 22 23 22 21 22 23 24
3 6 8 5 6 8 9 10 8 18 7 14 20 28 29 27 24 21 16 10 9 13 20 22 21 14 14 18 16 17 15 14 13 13 11 10 10 9 9 9 8 8 9 12 12 13 15 15 16
10 13 9 4 5 4 6 14 8 5 6 9 8 23 29 30 27 23 23 21 17 17 17 19 20 12 16 15 15 13 12 12 10 11 11 10 9 9 10 10 10 9 8 8 7 7 6 5 3
8 8 13 11 9 11 7 8 6 9 11 8 12 22 26 26 26 21 18 14 15 14 17 14 12 10 11 9 9 7 7 10 15 13 14 15 14 16 18 18 17 16 15 12 9 9 8 8 11
10 21 18 11 10 8 4 4 3 10 19 15 15 19 21 22 18 17 16 17 22 21 12 6 7 7 6 6 6 9 11 15 16 17 20 20 20 22 22 22 21 22 22 22 20 20 17 14 18
26 10 7 7 3 4 5 3 8 14 21 17 18 18 19 20 19 18 19 18 13 9 6 5 5 3 1 3 7 9 12 14 15 17 18 17 18 19 20 19 19 23 22 20 19 21 21 18 22
5 9 5 4 9 3 3 11 4 19 22 19 18 19 19 21 18 21 17 17 15 11 9 9 7 6 6 7 7 9 10 12 13 14 14 15 15 16 17 17 20 23 21 19 18 22 24 22 23
2 6 8 4 5 2 4 11 13 25 23 23 26 26 25 24 22 24 21 19 16 11 10 10 9 8 7 7 6 7 9 10 12 13 13 15 15 16 17 18 20 22 21 21 23 25 27 23 23
12 8 2 7 3 1 1 18 13 29 34 33 29 33 34 30 24 22 22 20 17 14 13 14 14 12 9 7 4 5 8 10 13 14 15 17 18 19 20 20 21 22 22 25 27 28 29 26 26
0 8 9 4 0 1 7 15 26 33 43 33 32 34 42 36 23 26 24 22 22 21 16 15 16 16 13 8 2 4 7 9 11 14 16 17 18 19 20 21 22 24 26 30 29 27 29 31 25
6 4 4 4 2 3 8 22 17 10 21 44 41 35 35 39 37 37 32 24 23 24 22 21 20 18 13 9 3 3 4 8 12 15 16 19 20 22 23 24 26 28 28 28 30 32 32 32 29
7 8 5 4 3 4 8 14 8 7 5 17 37 31 27 38 44 44 39 27 24 28 27 24 20 17 14 12 11 7 4 5 11 12 14 18 21 23 25 27 28 29 30 32 33 33 33 33 29
7 1 5 6 6 5 4 6 9 3 6 10 16 27 23 24 47 44 41 33 24 26 29 28 24 20 18 17 14 9 5 4 7 10 13 16 20 23 26 28 29 31 32 31 33 33 32 29 30
6 2 5 3 4 6 4 7 12 7 6 4 8 8 15 23 33 48 45 36 25 25 33 31 28 26 23 20 17 12 7 5 5 8 10 13 17 21 24 26 27 28 29 30 30 30 31 32 30
7 7 6 7 5 5 6 8 10 10 12 9 12 9 6 9 22 40 40 36 31 26 34 35 34 32 28 25 21 15 12 9 6 6 8 12 14 17 20 22 24 26 26 27 29 29 29 29 29
3 8 5 8 6 9 2 4 16 7 8 10 8 8 6 9 16 30 42 43 38 32 33 37 39 37 33 29 25 21 16 12 8 5 5 8 11 14 17 20 22 24 26 27 27 27 27 27 26
8 10 9 13 6 5 7 11 11 8 10 9 10 11 10 13 16 24 32 37 37 34 31 37 43 41 39 35 31 26 21 15 10 6 3 5 8 12 15 18 20 22 23 25 26 27 28 28 28
8 6 7 13 5 7 7 11 12 6 9 10 15 13 10 12 15 20 30 34 37 37 35 37 43 45 43 41 37 33 27 21 14 9 4 3 6 11 14 17 19 21 23 24 26 27 27 27 27
5 4 6 5 5 7 8 9 10 14 17 14 16 18 14 14 15 16 21 27 32 35 33 36 43 46 44 42 41 38 32 28 22 15 9 7 8 12 16 18 20 22 24 26 27 28 29 30 30
2 2 3 5 8 10 3 12 13 21 21 23 29 24 21 19 10 3 17 29 37 39 40 39 44 46 48 46 45 43 41 35 30 22 18 14 12 14 17 20 22 24 25 27 29 30 32 32 33
4 11 10 9 11 4 6 13 7 12 26 46 38 30 25 14 7 14 11 22 38 46 47 43 41 44 46 45 46 45 43 39 35 27 23 21 17 17 19 22 23 24 27 29 31 33 35 37 37
Wind_Direction_500mb
300 316 316 49 56 76 255 26 28 18 53 69 56 67 100 52 48 136 140 182 203 175 148 153 171 211 270 292 290 284 259 252 290 309 318 325 336 331 341 353 360 360 358 344 353 327 302 316 327
299 310 291 4 93 84 278 135 73 39 120 88 76 78 50 75 67 121 155 106 166 138 134 162 202 229 259 291 329 357 333 314 280 294 300 302 307 309 309 305 313 317 323 337 330 323 323 308 309
308 315 349 122 173 181 152 116 134 67 53 80 100 66 75 47 105 149 132 175 148 132 124 142 172 219 243 293 322 337 338 332 319 304 297 300 295 291 290 293 300 299 299 299 306 312 311 311 301
301 293 270 101 236 357 116 135 124 111 56 53 81 67 81 62 155 138 159 187 163 152 132 147 173 217 275 304 312 315 313 310 306 302 296 292 290 285 284 287 292 294 291 292 297 300 301 296 293
354 269 279 211 217 113 100 140 126 101 95 53 77 121 85 97 147 154 166 181 165 146 133 124 219 278 294 304 310 311 311 307 303 300 296 292 287 285 284 284 280 281 284 286 289 289 288 286 281
300 273 52 232 194 142 92 103 108 103 119 119 85 100 123 166 154 155 157 161 159 17 3 340 315 312 323 317 319 317 317 312 307 298 289 285 282 283 283 283 282 281 279 278 283 289 291 282 272
147 93 228 248 196 149 144 125 85 120 112 75 122 91 144 186 168 157 154 159 164 330 333 330 330 336 334 324 329 327 321 318 314 307 297 289 290 284 284 283 280 278 278 278 276 275 275 286 291
253 126 273 275 259 159 119 97 107 109 99 131 132 160 179 172 164 162 164 224 229 292 312 343 330 333 340 334 329 328 325 320 314 308 301 297 295 290 289 285 281 275 274 273 272 271 274 276 274
220 51 258 337 11 168 144 94 65 111 131 151 142 162 151 147 156 166 179 238 308 332 333 340 333 333 332 333 330 325 331 328 323 318 308 302 297 295 295 291 288 286 279 275 274 274 272 268 264
142 152 163 7 8 22 112 139 153 141 134 133 141 153 154 160 160 172 204 202 256 313 319 321 325 324 323 330 333 334 339 344 335 334 325 310 307 304 304 302 297 292 289 286 283 277 269 263 260
55 136 131 42 36 34 100 118 144 130 193 203 198 180 166 167 179 184 212 228 282 315 324 318 313 319 329 327 324 328 343 351 351 352 349 347 352 350 340 336 328 322 309 301 297 282 268 263 260
104 59 84 52 31 99 85 131 122 172 162 213 218 194 184 182 189 193 194 194 213 235 249 282 297 315 316 327 333 338 345 357 358 13 14 12 12 19 26 23 23 18 17 2 352 343 339 326 301
96 132 81 99 81 82 138 118 155 150 190 207 186 187 196 200 203 213 221 210 226 265 284 275 296 310 320 330 333 355 29 45 47 49 52 50 52 52 51 48 44 44 46 37 35 27 29 52 76
109 113 120 96 86 69 106 174 212 175 199 198 184 182 189 203 212 216 216 239 262 266 262 283 291 303 328 340 26 56 66 70 68 66 64 60 60 61 57 57 54 54 52 48 49 50 53 73 101
138 92 105 26 24 63 21 208 243 190 191 199 201 202 208 216 223 234 245 251 259 262 254 246 251 258 212 115 94 87 77 70 65 58 56 56 53 54 53 52 53 54 50 50 48 48 52 82 109
146 96 142 302 349 10 61 272 227 181 189 197 205 213 222 230 243 247 249 254 256 249 234 230 218 199 162 121 96 76 67 59 55 53 49 47 49 48 46 46 47 49 46 47 51 51 55 86 112
338 196 182 258 358 17 120 248 219 198 201 210 211 214 220 226 234 241 241 242 244 243 237 227 204 183 156 126 102 76 61 52 49 44 43 43 41 46 43 46 49 47 45 48 49 50 54 89 113
197 195 191 167 248 110 241 264 253 221 218 225 216 213 220 231 246 256 255 252 247 236 220 211 198 185 174 157 124 68 58 49 47 44 43 45 42 44 43 44 47 48 50 54 53 53 55 88 111
143 128 129 108 349 334 247 270 271 263 222 220 223 218 218 230 250 248 248 251 246 241 227 210 199 193 193 195 157 55 53 55 48 50 51 51 51 50 49 47 46 46 45 48 52 56 65 82 115
71 114 90 82 137 63 334 296 283 202 213 218 220 220 223 217 221 230 234 244 249 235 224 217 207 208 209 216 172 112 79 66 59 57 54 53 50 49 47 47 47 46 47 46 48 50 52 60 74
54 131 117 147 357 277 329 317 334 13 114 224 229 229 224 221 223 225 228 239 253 238 224 221 215 213 203 197 191 176 127 74 67 64 59 57 52 48 45 44 43 41 41 41 41 45 46 50 52
154 134 114 90 75 193 115 252 305 187 66 67 179 206 219 228 225 231 232 239 255 245 225 221 219 215 208 202 205 218 185 110 83 73 64 58 52 48 44 41 38 36 36 36 36 37 38 40 49
140 80 97 86 98 74 307 97 266 146 96 126 177 196 231 230 238 230 235 243 250 248 229 225 220 216 212 210 215 211 183 154 123 96 82 69 54 46 42 38 35 32 30 31 31 30 30 29 30
133 89 51 53 83 39 233 141 272 197 182 172 143 124 149 217 235 232 235 230 234 244 228 223 220 219 215 213 213 208 196 185 156 121 83 64 54 42 37 33 30 29 27 25 24 23 22 23 22
80 91 20 359 10 217 291 73 238 211 212 183 185 188 200 213 209 219 218 220 227 236 233 223 221 219 217 216 217 214 209 200 186 139 88 62 45 33 26 23 23 20 18 17 16 15 14 13 11
176 151 156 193 189 210 5 228 259 216 162 141 133 126 133 172 192 221 229 230 236 241 243 234 224 218 218 217 218 218 215 213 205 179 129 49 31 20 13 9 10 12 10 7 6 4 4 3 2
195 187 142 103 46 57 218 276 317 183 175 124 130 140 139 153 176 207 222 236 243 243 249 244 234 224 219 218 218 221 220 221 219 217 232 339 3 8 359 356 354 356 359 358 356 355 354 354 352
148 228 95 359 127 253 276 267 225 213 204 168 164 165 149 145 167 185 219 237 247 251 252 249 238 235 230 222 223 224 224 224 226 229 247 279 323 343 348 345 342 342 345 346 344 343 343 343 344
132 185 39 124 148 169 198 258 215 205 179 177 176 169 158 146 132 240 241 243 250 254 251 250 246 238 232 227 226 226 225 226 230 233 246 265 294 321 336 336 332 330 331 333 334 334 335 334 334
194 204 170 135 226 214 153 271 278 194 176 170 173 173 172 182 281 308 279 242 240 246 250 252 253 247 240 237 232 231 230 231 235 239 249 263 278 298 319 325 322 320 321 323 326 327 327 326 325
Wind_Speed_850mb
11 10 11 2 6 7 5 5 8 11 9 13 26 26 29 32 10 5 18 8 11 10 8 7 7 5 5 8 11 9 7 4 6 8 9 7 8 9 8 10 13 15 17 15 14 15 14 13 13
10 8 5 1 5 1 4 1 9 13 7 12 19 11 22 10 18 23 12 5 6 8 6 7 5 6 8 8 6 8 9 8 9 11 13 14 14 15 15 16 16 16 14 16 15 13 14 12 13
8 9 2 4 4 2 5 6 13 16 29 13 11 25 11 7 14 14 7 5 5 6 8 9 9 8 4 3 4 6 8 9 10 12 14 15 15 17 20 21 20 21 20 18 19 18 17 14 13
4 3 5 5 4 6 8 11 28 12 14 22 16 19 16 6 9 9 12 10 7 6 7 6 5 5 5 7 10 10 11 14 15 16 17 19 20 22 24 23 18 20 23 22 22 21 19 19 17
7 6 2 4 2 6 10 28 18 10 11 22 9 10 11 9 14 15 13 8 5 4 4 3 3 4 7 10 14 16 17 18 19 21 23 25 26 26 27 27 27 28 26 26 28 27 25 22 21
4 3 4 6 3 10 7 24 35 21 14 9 18 15 6 12 11 13 9 6 2 0 2 3 4 6 10 13 16 19 21 21 21 22 25 29 31 32 28 27 29 28 31 32 30 27 30 27 27
3 5 8 7 4 3 9 21 10 15 14 7 13 10 14 15 14 12 7 4 1 2 4 6 9 11 11 13 15 17 20 22 24 23 24 29 27 32 29 29 29 29 28 28 26 24 27 28 23
4 6 5 7 5 4 4 10 13 19 7 15 12 13 14 22 18 13 6 4 4 3 6 7 11 12 14 18 19 17 19 21 21 22 24 25 25 28 25 23 24 26 26 28 28 28 28 28 26
3 4 5 5 8 7 14 8 5 13 19 8 8 15 14 26 21 17 11 5 7 8 12 11 12 17 16 16 18 18 15 16 17 17 19 20 20 21 23 24 23 23 24 27 29 29 28 26 26
4 6 6 4 6 3 11 7 17 10 11 7 12 18 22 23 25 17 16 9 6 8 12 14 14 14 19 21 20 21 20 16 16 15 14 14 14 15 17 19 20 21 22 23 22 21 22 23 24
3 6 8 5 6 8 9 10 8 18 7 14 20 28 29 27 24 21 16 10 9 13 20 22 21 14 14 18 16 17 15 14 13 13 11 10 10 9 9 9 8 8 9 12 12 13 15 15 16
10 13 9 4 5 4 6 14 8 5 6 9 8 23 29 30 27 23 23 21 17 17 17 19 20 12 16 15 15 13 12 12 10 11 11 10 9 9 10 10 10 9 8 8 7 7 6 5 3
8 8 13 11 9 11 7 8 6 9 11 8 12 22 26 26 26 21 18 14 15 14 17 14 12 10 11 9 9 7 7 10 15 13 14 15 14 16 18 18 17 16 15 12 9 9 8 8 11
10 21 18 11 10 8 4 4 3 10 19 15 15 19 21 22 18 17 16 17 22 21 12 6 7 7 6 6 6 9 11 15 16 17 20 20 20 22 22 22 21 22 22 22 20 20 17 14 18
26 10 7 7 3 4 5 3 8 14 21 17 18 18 19 20 19 18 19 18 13 9 6 5 5 3 1 3 7 9 12 14 15 17 18 17 18 19 20 19 19 23 22 20 19 21 21 18 22
5 9 5 4 9 3 3 11 4 19 22 19 18 19 19 21 18 21 17 17 15 11 9 9 7 6 6 7 7 9 10 12 13 14 14 15 15 16 17 17 20 23 21 19 18 22 24 22 23
2 6 8 4 5 2 4 11 13 25 23 23 26 26 25 24 22 24 21 19 16 11 10 10 9 8 7 7 6 7 9 10 12 13 13 15 15 16 17 18 20 22 21 21 23 25 27 23 23
12 8 2 7 3 1 1 18 13 29 34 33 29 33 34 30 24 22 22 20 17 14 13 14 14 12 9 7 4 5 8 10 13 14 15 17 18 19 20 20 21 22 22 25 27 28 29 26 26
0 8 9 4 0 1 7 15 26 33 43 33 32 34 42 36 23 26 24 22 22 21 16 15 16 16 13 8 2 4 7 9 11 14 16 17 18 19 20 21 22 24 26 30 29 27 29 31 25
6 4 4 4 2 3 8 22 17 10 21 44 41 35 35 39 37 37 32 24 23 24 22 21 20 18 13 9 3 3 4 8 12 15 16 19 20 22 23 24 26 28 28 28 30 32 32 32 29
7 8 5 4 3 4 8 14 8 7 5 17 37 31 27 38 44 44 39 27 24 28 27 24 20 17 14 12 11 7 4 5 11 12 14 18 21 23 25 27 28 29 30 32 33 33 33 33 29
7 1 5 6 6 5 4 6 9 3 6 10 16 27 23 24 47 44 41 33 24 26 29 28 24 20 18 17 14 9 5 4 7 10 13 16 20 23 26 28 29 31 32 31 33 33 32 29 30
6 2 5 3 4 6 4 7 12 7 6 4 8 8 15 23 33 48 45 36 25 25 33 31 28 26 23 20 17 12 7 5 5 8 10 13 17 21 24 26 27 28 29 30 30 30 31 32 30
7 7 6 7 5 5 6 8 10 10 12 9 12 9 6 9 22 40 40 36 31 26 34 35 34 32 28 25 21 15 12 9 6 6 8 12 14 17 20 22 24 26 26 27 29 29 29 29 29
3 8 5 8 6 9 2 4 16 7 8 10 8 8 6 9 16 30 42 43 38 32 33 37 39 37 33 29 25 21 16 12 8 5 5 8 11 14 17 20 22 24 26 27 27 27 27 27 26
8 10 9 13 6 5 7 11 11 8 10 9 10 11 10 13 16 24 32 37 37 34 31 37 43 41 39 35 31 26 21 15 10 6 3 5 8 12 15 18 20 22 23 25 26 27 28 28 28
8 6 7 13 5 7 7 11 12 6 9 10 15 13 10 12 15 20 30 34 37 37 35 37 43 45 43 41 37 33 27 21 14 9 4 3 6 11 14 17 19 21 23 24 26 27 27 27 27
5 4 6 5 5 7 8 9 10 14 17 14 16 18 14 14 15 16 21 27 32 35 33 36 43 46 44 42 41 38 32 28 22 15 9 7 8 12 16 18 20 22 24 26 27 28 29 30 30
2 2 3 5 8 10 3 12 13 21 21 23 29 24 21 19 10 3 17 29 37 39 40 39 44 46 48 46 45 43 41 35 30 22 18 14 12 14 17 20 22 24 25 27 29 30 32 32 33
4 11 10 9 11 4 6 13 7 12 26 46 38 30 25 14 7 14 11 22 38 46 47 43 41 44 46 45 46 45 43 39 35 27 23 21 17 17 19 22 23 24 27 29 31 33 35 37 37
Wind_Direction_850mb
300 316 316 49 56 76 255 26 28 18 53 69 56 67 100 52 48 136 140 182 203 175 148 153 171 211 270 292 290 284 259 252 290 309 318 325 336 331 341 353 360 360 358 344 353 327 302 316 327
299 310 291 4 93 84 278 135 73 39 120 88 76 78 50 75 67 121 155 106 166 138 134 162 202 229 259 291 329 357 333 314 280 294 300 302 307 309 309 305 313 317 323 337 330 323 323 308 309
308 315 349 122 173 181 152 116 134 67 53 80 100 66 75 47 105 149 132 175 148 132 124 142 172 219 243 293 322 337 338 332 319 304 297 300 295 291 290 293 300 299 299 299 306 312 311 311 301
301 293 270 101 236 357 116 135 124 111 56 53 81 67 81 62 155 138 159 187 163 152 132 147 173 217 275 304 312 315 313 310 306 302 296 292 290 285 284 287 292 294 291 292 297 300 301 296 293
354 269 279 211 217 113 100 140 126 101 95 53 77 121 85 97 147 154 166 181 165 146 133 124 219 278 294 304 310 311 311 307 303 300 296 292 287 285 284 284 280 281 284 286 289 289 288 286 281
300 273 52 232 194 142 92 103 108 103 119 119 85 100 123 166 154 155 157 161 159 17 3 340 315 312 323 317 319 317 317 312 307 298 289 285 282 283 283 283 282 281 279 278 283 289 291 282 272
147 93 228 248 196 149 144 125 85 120 112 75 122 91 144 186 168 157 154 159 164 330 333 330 330 336 334 324 329 327 321 318 314 307 297 289 290 284 284 283 280 278 278 278 276 275 275 286 291
253 126 273 275 259 159 119 97 107 109 99 131 132 160 179 172 164 162 164 224 229 292 312 343 330 333 340 334 329 328 325 320 314 308 301 297 295 290 289 285 281 275 274 273 272 271 274 276 274
220 51 258 337 11 168 144 94 65 111 131 151 142 162 151 147 156 166 179 238 308 332 333 340 333 333 332 333 330 325 331 328 323 318 308 302 297 295 295 291 288 286 279 275 274 274 272 268 264
142 152 163 7 8 22 112 139 153 141 134 133 141 153 154 160 160 172 204 202 256 313 319 321 325 324 323 330 333 334 339 344 335 334 325 310 307 304 304 302 297 292 289 286 283 277 269 263 260
55 136 131 42 36 34 100 118 144 130 193 203 198 180 166 167 179 184 212 228 282 315 324 318 313 319 329 327 324 328 343 351 351 352 349 347 352 350 340 336 328 322 309 301 297 282 268 263 260
104 59 84 52 31 99 85 131 122 172 162 213 218 194 184 182 189 193 194 194 213 235 249 282 297 315 316 327 333 338 345 357 358 13 14 12 12 19 26 23 23 18 17 2 352 343 339 326 301
96 132 81 99 81 82 138 118 155 150 190 207 186 187 196 200 203 213 221 210 226 265 284 275 296 310 320 330 333 355 29 45 47 49 52 50 52 52 51 48 44 44 46 37 35 27 29 52 76
109 113 120 96 86 69 106 174 212 175 199 198 184 182 189 203 212 216 216 239 262 266 262 283 291 303 328 340 26 56 66 70 68 66 64 60 60 61 57 57 54 54 52 48 49 50 53 73 101
138 92 105 26 24 63 21 208 243 190 191 199 201 202 208 216 223 234 245 251 259 262 254 246 251 258 212 115 94 87 77 70 65 58 56 56 53 54 53 52 53 54 50 50 48 48 52 82 109
146 96 142 302 349 10 61 272 227 181 189 197 205 213 222 230 243 247 249 254 256 249 234 230 218 199 162 121 96 76 67 59 55 53 49 47 49 48 46 46 47 49 46 47 51 51 55 86 112
338 196 182 258 358 17 120 248 219 198 201 210 211 214 220 226 234 241 241 242 244 243 237 227 204 183 156 126 102 76 61 52 49 44 43 43 41 46 43 46 49 47 45 48 49 50 54 89 113
197 195 191 167 248 110 241 264 253 221 218 225 216 213 220 231 246 256 255 252 247 236 220 211 198 185 174 157 124 68 58 49 47 44 43 45 42 44 43 44 47 48 50 54 53 53 55 88 111
143 128 129 108 349 334 247 270 271 263 222 220 223 218 218 230 250 248 248 251 246 241 227 210 199 193 193 195 157 55 53 55 48 50 51 51 51 50 49 47 46 46 45 48 52 56 65 82 115
71 114 90 82 137 63 334 296 283 202 213 218 220 220 223 217 221 230 234 244 249 235 224 217 207 208 209 216 172 112 79 66 59 57 54 53 50 49 47 47 47 46 47 46 48 50 52 60 74
54 131 117 147 357 277 329 317 334 13 114 224 229 229 224 221 223 225 228 239 253 238 224 221 215 213 203 197 191 176 127 74 67 64 59 57 52 48 45 44 43 41 41 41 41 45 46 50 52
154 134 114 90 75 193 115 252 305 187 66 67 179 206 219 228 225 231 232 239 255 245 225 221 219 215 208 202 205 218 185 110 83 73 64 58 52 48 44 41 38 36 36 36 36 37 38 40 49
140 80 97 86 98 74 307 97 266 146 96 126 177 196 231 230 238 230 235 243 250 248 229 225 220 216 212 210 215 211 183 154 123 96 82 69 54 46 42 38 35 32 30 31 31 30 30 29 30
133 89 51 53 83 39 233 141 272 197 182 172 143 124 149 217 235 232 235 230 234 244 228 223 220 219 215 213 213 208 196 185 156 121 83 64 54 42 37 33 30 29 27 25 24 23 22 23 22
80 91 20 359 10 217 291 73 238 211 212 183 185 188 200 213 209 219 218 220 227 236 233 223 221 219 217 216 217 214 209 200 186 139 88 62 45 33 26 23 23 20 18 17 16 15 14 13 11
176 151 156 193 189 210 5 228 259 216 162 141 133 126 133 172 192 221 229 230 236 241 243 234 224 218 218 217 218 218 215 213 205 179 129 49 31 20 13 9 10 12 10 7 6 4 4 3 2
195 187 142 103 46 57 218 276 317 183 175 124 130 140 139 153 176 207 222 236 243 243 249 244 234 224 219 218 218 221 220 221 219 217 232 339 3 8 359 356 354 356 359 358 356 355 354 354 352
148 228 95 359 127 253 276 267 225 213 204 168 164 165 149 145 167 185 219 237 247 251 252 249 238 235 230 222 223 224 224 224 226 229 247 279 323 343 348 345 342 342 345 346 344 343 343 343 344
132 185 39 124 148 169 198 258 215 205 179 177 176 169 158 146 132 240 241 243 250 254 251 250 246 238 232 227 226 226 225 226 230 233 246 265 294 321 336 336 332 330 331 333 334 334 335 334 334
194 204 170 135 226 214 153 271 278 194 176 170 173 173 172 182 281 308 279 242 240 246 250 252 253 247 240 237 232 231 230 231 235 239 249 263 278 298 319 325 322 320 321 323 326 327 327 326 325